Location: Newark
(42.4040°N, 21.7420°E)
Time: 18:13:44
(UTC+00:00)

ISS - Visible Passes

Search period start: 25 January 2021 00:00
Search period end: 04 February 2021 00:00
Orbit: 418 x 421 km, 51.6° (Epoch: 25 January)

Date Brightness Start Highest point End Pass type
(mag) Time Alt. Az. Time Alt. Az. Time Alt. Az.
25 Jan -1.8 17:00:12 10° WNW 17:02:48 20° NNW 17:04:02 17° NNE visible
26 Jan -2.0 16:12:26 10° WNW 16:15:15 24° NNW 16:18:04 10° NE visible
26 Jan -1.1 17:50:36 10° NW 17:51:35 14° NNW 17:51:35 14° NNW visible
27 Jan -1.7 17:03:00 10° NW 17:05:19 17° N 17:06:09 16° NNE visible
28 Jan -1.7 16:15:17 10° NW 16:17:42 18° N 16:20:06 10° NE visible
28 Jan -1.1 17:52:45 10° NW 17:53:41 15° NNW 17:53:41 15° NNW visible
29 Jan -1.9 17:05:20 10° NW 17:07:48 18° N 17:08:16 18° NNE visible
30 Jan -1.7 16:17:50 10° NW 16:20:10 17° N 16:22:30 10° NE visible
30 Jan -1.4 17:54:36 10° NW 17:55:52 19° NNW 17:55:52 19° NNW visible
31 Jan -2.4 17:07:17 10° NW 17:10:10 25° NNE 17:10:32 25° NNE visible
01 Feb -2.1 16:19:54 10° NW 16:22:33 21° NNE 16:25:13 10° ENE visible
01 Feb -2.0 17:56:25 10° NW 17:58:16 29° NW 17:58:16 29° NW visible
02 Feb -3.4 17:09:03 10° NW 17:12:19 47° NNE 17:13:06 38° ENE visible
03 Feb -2.8 16:21:40 10° NW 16:24:47 33° NNE 16:27:53 10° E visible
03 Feb -2.3 17:58:27 10° WNW 18:01:05 36° WSW 18:01:05 36° WSW visible
